• In Germany
  • List of Countries
  • For 7 days
  • Water Temperature
  • Satellite Maps
  • Weather Map
  • Weather Widgets
  • user-avatar
    Login

    Hourly Weather Ruse

    Today, 18 August, Friday

    Time Temperature Precipitation Wind Pressure Humidity
    00:00 +24°C° 0 mm 1 mps 756 mmHg 43%
    01:00 +23°C° 0 mm 1 mps 756 mmHg 44%
    02:00 +23°C° 0 mm 1 mps 756 mmHg 44%
    03:00 +22°C° 0 mm 1 mps 756 mmHg 45%
    04:00 +22°C° 0 mm 1 mps 756 mmHg 46%
    05:00 +22°C° 0 mm 1 mps 756 mmHg 47%
    06:00 +23°C° 0 mm 1 mps 757 mmHg 45%
    07:00 +25°C° 0 mm 1 mps 757 mmHg 42%
    08:00 +27°C° 0 mm 2 mps 757 mmHg 39%
    09:00 +29°C° 0 mm 2 mps 757 mmHg 35%
    10:00 +31°C° 0 mm 3 mps 757 mmHg 31%
    11:00 +34°C° 0 mm 3 mps 757 mmHg 27%
    12:00 +35°C° 0 mm 3 mps 756 mmHg 25%
    13:00 +36°C° 0 mm 3 mps 756 mmHg 22%
    14:00 +37°C° 0 mm 3 mps 756 mmHg 20%
    15:00 +37°C° 0 mm 3 mps 756 mmHg 20%
    16:00 +36°C° 0 mm 3 mps 756 mmHg 21%
    17:00 +36°C° 0 mm 3 mps 756 mmHg 21%
    18:00 +34°C° 0 mm 2 mps 756 mmHg 24%
    19:00 +30°C° 0 mm 2 mps 756 mmHg 28%
    20:00 +28°C° 0 mm 1 mps 756 mmHg 31%
    21:00 +27°C° 0 mm 1 mps 756 mmHg 33%
    22:00 +26°C° 0 mm 1 mps 756 mmHg 35%
    23:00 +25°C° 0 mm 1 mps 757 mmHg 37%

    Tomorrow, 19 August, Saturday

    Time Temperature Precipitation Wind Pressure Humidity
    00:00 +24°C° 0 mm 1 mps 757 mmHg 38%
    01:00 +24°C° 0 mm 1 mps 757 mmHg 40%
    02:00 +23°C° 0 mm 1 mps 757 mmHg 41%
    03:00 +23°C° 0 mm 1 mps 757 mmHg 43%
    04:00 +22°C° 0 mm 1 mps 756 mmHg 44%
    05:00 +22°C° 0 mm 1 mps 756 mmHg 45%
    06:00 +24°C° 0 mm 1 mps 756 mmHg 42%
    07:00 +26°C° 0 mm 1 mps 757 mmHg 39%
    08:00 +28°C° 0 mm 1 mps 757 mmHg 36%
    09:00 +30°C° 0 mm 1 mps 757 mmHg 32%
    10:00 +32°C° 0 mm 2 mps 756 mmHg 29%
    11:00 +35°C° 0 mm 2 mps 756 mmHg 25%
    12:00 +36°C° 0 mm 2 mps 756 mmHg 23%
    13:00 +37°C° 0 mm 3 mps 755 mmHg 21%
    14:00 +37°C° 0 mm 3 mps 755 mmHg 18%
    15:00 +37°C° 0 mm 3 mps 755 mmHg 18%
    16:00 +37°C° 0 mm 3 mps 754 mmHg 18%
    17:00 +37°C° 0 mm 3 mps 754 mmHg 18%
    18:00 +34°C° 0 mm 2 mps 754 mmHg 21%
    19:00 +31°C° 0 mm 2 mps 755 mmHg 25%
    20:00 +28°C° 0 mm 1 mps 755 mmHg 28%
    21:00 +27°C° 0 mm 1 mps 755 mmHg 31%
    22:00 +26°C° 0 mm 2 mps 756 mmHg 34%
    23:00 +25°C° 0 mm 2 mps 756 mmHg 37%

    Day after tomorrow, 20 August, Sunday

    Time Temperature Precipitation Wind Pressure Humidity
    00:00 +25°C° 0 mm 2 mps 756 mmHg 39%
    01:00 +24°C° 0 mm 2 mps 755 mmHg 42%
    02:00 +23°C° 0 mm 1 mps 755 mmHg 45%
    03:00 +23°C° 0 mm 1 mps 755 mmHg 47%
    04:00 +22°C° 0 mm 1 mps 755 mmHg 49%
    05:00 +22°C° 0 mm 1 mps 755 mmHg 50%
    06:00 +24°C° 0 mm 1 mps 755 mmHg 47%
    07:00 +26°C° 0 mm 1 mps 755 mmHg 44%
    08:00 +28°C° 0 mm 2 mps 755 mmHg 40%
    09:00 +29°C° 0 mm 2 mps 755 mmHg 35%
    10:00 +31°C° 0 mm 3 mps 755 mmHg 30%
    11:00 +34°C° 0 mm 3 mps 755 mmHg 25%
    12:00 +35°C° 0 mm 3 mps 754 mmHg 24%
    13:00 +36°C° 0 mm 3 mps 754 mmHg 22%
    14:00 +37°C° 0 mm 3 mps 753 mmHg 21%
    15:00 +37°C° 0 mm 3 mps 753 mmHg 21%
    16:00 +36°C° 0 mm 2 mps 752 mmHg 20%
    17:00 +36°C° 0 mm 2 mps 752 mmHg 20%
    18:00 +34°C° 0 mm 2 mps 752 mmHg 24%
    19:00 +30°C° 0 mm 1 mps 752 mmHg 27%
    20:00 +28°C° 0 mm 1 mps 753 mmHg 31%
    21:00 +27°C° 0 mm 1 mps 753 mmHg 35%
    22:00 +26°C° 0 mm 2 mps 753 mmHg 40%
    23:00 +25°C° 0 mm 3 mps 753 mmHg 44%

    21 August, Monday

    Time Temperature Precipitation Wind Pressure Humidity
    00:00 +23°C° 0 mm 4 mps 753 mmHg 54%
    01:00 +22°C° 0 mm 4 mps 753 mmHg 63%
    02:00 +21°C° 0 mm 5 mps 753 mmHg 72%
    03:00 +21°C° 0 mm 5 mps 753 mmHg 73%
    04:00 +20°C° 0 mm 5 mps 753 mmHg 75%
    05:00 +20°C° 0 mm 5 mps 753 mmHg 76%
    06:00 +21°C° 0 mm 5 mps 753 mmHg 72%
    07:00 +22°C° 0 mm 6 mps 753 mmHg 67%
    08:00 +23°C° 0 mm 6 mps 753 mmHg 63%
    09:00 +24°C° 0.1 mm 6 mps 753 mmHg 60%
    10:00 +26°C° 0.1 mm 6 mps 753 mmHg 57%
    11:00 +27°C° 0.1 mm 6 mps 753 mmHg 54%
    12:00 +28°C° 0 mm 5 mps 752 mmHg 49%
    13:00 +29°C° 0 mm 5 mps 752 mmHg 45%
    14:00 +30°C° 0 mm 5 mps 752 mmHg 40%
    15:00 +30°C° 0 mm 5 mps 752 mmHg 38%
    16:00 +30°C° 0 mm 5 mps 752 mmHg 37%
    17:00 +30°C° 0 mm 5 mps 752 mmHg 35%
    18:00 +28°C° 0.4 mm 5 mps 752 mmHg 42%
    19:00 +26°C° 0.4 mm 5 mps 753 mmHg 49%
    20:00 +22°C° 0.4 mm 4 mps 753 mmHg 56%
    21:00 +21°C° 0.1 mm 4 mps 754 mmHg 62%
    22:00 +20°C° 0.1 mm 3 mps 754 mmHg 69%
    23:00 +19°C° 0.1 mm 2 mps 754 mmHg 75%

    22 August, Tuesday

    Time Temperature Precipitation Wind Pressure Humidity
    00:00 +18°C° 0 mm 2 mps 755 mmHg 77%
    01:00 +18°C° 0 mm 2 mps 755 mmHg 78%
    02:00 +17°C° 0 mm 2 mps 755 mmHg 79%
    03:00 +17°C° 0 mm 2 mps 755 mmHg 78%
    04:00 +17°C° 0 mm 2 mps 755 mmHg 77%
    05:00 +16°C° 0 mm 1 mps 755 mmHg 76%
    06:00 +18°C° 0 mm 2 mps 756 mmHg 69%
    07:00 +19°C° 0 mm 3 mps 756 mmHg 63%
    08:00 +21°C° 0 mm 3 mps 756 mmHg 56%
    09:00 +22°C° 0 mm 3 mps 756 mmHg 50%
    10:00 +25°C° 0 mm 4 mps 756 mmHg 45%
    11:00 +27°C° 0 mm 4 mps 756 mmHg 39%
    12:00 +28°C° 0 mm 4 mps 755 mmHg 36%
    13:00 +29°C° 0 mm 4 mps 755 mmHg 32%
    14:00 +29°C° 0 mm 4 mps 754 mmHg 29%
    15:00 +29°C° 0 mm 4 mps 754 mmHg 29%
    16:00 +29°C° 0 mm 4 mps 754 mmHg 28%
    17:00 +28°C° 0 mm 4 mps 754 mmHg 28%
    18:00 +26°C° 0 mm 4 mps 755 mmHg 33%
    19:00 +23°C° 0 mm 4 mps 755 mmHg 38%
    20:00 +22°C° 0 mm 4 mps 756 mmHg 43%
    21:00 +21°C° 0 mm 3 mps 756 mmHg 47%
    22:00 +20°C° 0 mm 2 mps 756 mmHg 51%
    23:00 +19°C° 0 mm 2 mps 757 mmHg 54%

    23 August, Wednesday

    Time Temperature Precipitation Wind Pressure Humidity
    00:00 +18°C° 0 mm 2 mps 757 mmHg 55%
    01:00 +19°C° 0 mm 1 mps 757 mmHg 56%
    02:00 +18°C° 0 mm 1 mps 757 mmHg 58%
    03:00 +16°C° 0 mm 1 mps 757 mmHg 59%
    04:00 +16°C° 0 mm 1 mps 757 mmHg 60%
    05:00 +16°C° 0 mm 1 mps 757 mmHg 61%
    06:00 +17°C° 0 mm 2 mps 757 mmHg 56%
    07:00 +19°C° 0 mm 2 mps 758 mmHg 51%
    08:00 +21°C° 0 mm 3 mps 758 mmHg 46%
    09:00 +22°C° 0 mm 3 mps 758 mmHg 42%
    10:00 +25°C° 0 mm 3 mps 758 mmHg 37%
    11:00 +27°C° 0 mm 3 mps 758 mmHg 32%
    12:00 +28°C° 0 mm 3 mps 757 mmHg 29%
    13:00 +29°C° 0 mm 3 mps 757 mmHg 27%
    14:00 +30°C° 0 mm 3 mps 757 mmHg 24%
    15:00 +30°C° 0 mm 3 mps 756 mmHg 23%
    16:00 +30°C° 0 mm 2 mps 756 mmHg 23%
    17:00 +30°C° 0 mm 2 mps 756 mmHg 22%
    18:00 +28°C° 0 mm 2 mps 757 mmHg 26%
    19:00 +25°C° 0 mm 1 mps 757 mmHg 29%
    20:00 +23°C° 0 mm 1 mps 757 mmHg 33%
    21:00 +22°C° 0 mm 1 mps 758 mmHg 35%
    22:00 +22°C° 0 mm 1 mps 758 mmHg 36%
    23:00 +20°C° 0 mm 2 mps 758 mmHg 37%
    Show more